Location: Chittendens Corners
(41.2320°N, 81.4940°W)
Time: 18:45:37
(UTC+00:00)

Feng Yun 1-1 Rocket - Pass Details

Date: 29 October 2020
Orbit: 829 x 934 km, 99.2° (Epoch: 24 November)

Event Time Altitude Azimuth Distance (km) Brightness Sun altitude
Rises 23:27:44 0° 164° (SSE) 3,553 7.4 -12.4°
Reaches altitude 10° 23:30:07 10° 165° (SSE) 2,622 6.7 -12.9°
Maximum altitude 23:36:01 87° 253° (WSW) 940 4.4 -14.0°
Drops below altitude 10° 23:41:59 10° 345° (NNW) 2,648 6.9 -15.1°
Sets 23:44:25 0° 346° (NNW) 3,591 7.6 -15.6°
